Location: Park tmavé oblohy Beskydy, www.darkskybeskydy.cz
(49.4926°N, 18.5016°E)
Time: 02:56:34
(UTC+02:00)

ISS - Visible Passes

Search period start: 16 September 2019 00:00
Search period end: 26 September 2019 00:00
Orbit: 411 x 421 km, 51.6° (Epoch: 16 September)

Date Brightness Start Highest point End Pass type
(mag) Time Alt. Az. Time Alt. Az. Time Alt. Az.
19 Sep -1.8 20:38:06 10° SSW 20:39:17 18° S 20:39:17 18° S visible
20 Sep -2.2 19:50:17 10° S 19:52:38 18° SE 19:53:24 17° ESE visible
20 Sep -1.1 21:25:39 10° WSW 21:26:19 15° WSW 21:26:19 15° WSW visible
21 Sep -3.5 20:37:16 10° SW 20:40:12 52° S 20:40:12 52° S visible
22 Sep -3.1 19:48:59 10° SW 19:52:05 37° SSE 19:53:55 20° E visible
22 Sep -1.5 21:25:24 10° W 21:26:49 23° W 21:26:49 23° W visible
23 Sep -3.9 20:36:50 10° WSW 20:40:10 85° NNW 20:40:23 76° NE visible
24 Sep -3.8 19:48:20 10° WSW 19:51:39 73° SSE 19:53:51 19° ENE visible
24 Sep -1.5 21:25:12 10° W 21:26:45 24° WNW 21:26:45 24° WNW visible
25 Sep -3.5 20:36:35 10° W 20:39:53 61° N 20:40:07 59° NNE visible
